• In Netherlands
  • List of Countries
  • For 7 days
  • Water Temperature
  • Satellite Maps
  • Weather Map
  • Weather Widgets
  • user-avatar
    Login

    Hourly Weather Koty

    Today, 20 June, Wednesday

    Time Temperature Precipitation Wind Pressure Humidity
    00:00 +16°C° 0 mm 2 mps 756 mmHg 90%
    01:00 +16°C° 0 mm 2 mps 756 mmHg 91%
    02:00 +15°C° 0 mm 2 mps 756 mmHg 91%
    03:00 +15°C° 0 mm 2 mps 756 mmHg 92%
    04:00 +15°C° 0 mm 2 mps 756 mmHg 92%
    05:00 +17°C° 0 mm 3 mps 756 mmHg 84%
    06:00 +18°C° 0 mm 3 mps 756 mmHg 75%
    07:00 +20°C° 0 mm 4 mps 756 mmHg 67%
    08:00 +21°C° 0 mm 4 mps 756 mmHg 61%
    09:00 +22°C° 0 mm 5 mps 756 mmHg 56%
    10:00 +23°C° 0 mm 5 mps 756 mmHg 51%
    11:00 +25°C° 0 mm 5 mps 756 mmHg 49%
    12:00 +26°C° 0 mm 5 mps 756 mmHg 46%
    13:00 +26°C° 0 mm 5 mps 756 mmHg 44%
    14:00 +26°C° 0 mm 5 mps 756 mmHg 45%
    15:00 +26°C° 0 mm 4 mps 755 mmHg 46%
    16:00 +26°C° 0 mm 4 mps 755 mmHg 46%
    17:00 +25°C° 0 mm 3 mps 755 mmHg 53%
    18:00 +24°C° 0 mm 2 mps 755 mmHg 59%
    19:00 +23°C° 0 mm 1 mps 754 mmHg 65%
    20:00 +21°C° 0 mm 1 mps 754 mmHg 68%
    21:00 +20°C° 0 mm 1 mps 754 mmHg 70%
    22:00 +19°C° 0 mm 1 mps 754 mmHg 73%
    23:00 +17°C° 0 mm 2 mps 754 mmHg 75%

    Tomorrow, 21 June, Thursday

    Time Temperature Precipitation Wind Pressure Humidity
    00:00 +17°C° 0 mm 2 mps 754 mmHg 77%
    01:00 +17°C° 0 mm 2 mps 754 mmHg 80%
    02:00 +17°C° 0 mm 2 mps 753 mmHg 81%
    03:00 +18°C° 0 mm 2 mps 753 mmHg 82%
    04:00 +18°C° 0 mm 3 mps 753 mmHg 83%
    05:00 +20°C° 0.1 mm 3 mps 752 mmHg 80%
    06:00 +21°C° 0.1 mm 4 mps 752 mmHg 77%
    07:00 +22°C° 0.1 mm 4 mps 752 mmHg 74%
    08:00 +23°C° 0.1 mm 4 mps 751 mmHg 69%
    09:00 +26°C° 0.1 mm 5 mps 751 mmHg 64%
    10:00 +27°C° 0.1 mm 5 mps 750 mmHg 59%
    11:00 +28°C° 0 mm 6 mps 749 mmHg 56%
    12:00 +29°C° 0 mm 6 mps 748 mmHg 53%
    13:00 +30°C° 0 mm 6 mps 748 mmHg 50%
    14:00 +29°C° 0.1 mm 6 mps 747 mmHg 53%
    15:00 +29°C° 0.1 mm 6 mps 746 mmHg 56%
    16:00 +28°C° 0.1 mm 5 mps 745 mmHg 60%
    17:00 +27°C° 0.4 mm 5 mps 744 mmHg 64%
    18:00 +26°C° 0.4 mm 5 mps 744 mmHg 69%
    19:00 +25°C° 0.4 mm 5 mps 743 mmHg 73%
    20:00 +22°C° 0.9 mm 5 mps 744 mmHg 80%
    21:00 +20°C° 0.9 mm 5 mps 744 mmHg 86%
    22:00 +19°C° 0.9 mm 5 mps 744 mmHg 92%
    23:00 +16°C° 0.5 mm 5 mps 745 mmHg 91%

    Day after tomorrow, 22 June, Friday

    Time Temperature Precipitation Wind Pressure Humidity
    00:00 +14°C° 0.5 mm 5 mps 745 mmHg 91%
    01:00 +12°C° 0.5 mm 5 mps 746 mmHg 90%
    02:00 +12°C° 0 mm 5 mps 746 mmHg 90%
    03:00 +10°C° 0 mm 5 mps 746 mmHg 89%
    04:00 +9°C° 0 mm 6 mps 747 mmHg 89%
    05:00 +10°C° 0 mm 6 mps 747 mmHg 84%
    06:00 +11°C° 0 mm 6 mps 748 mmHg 79%
    07:00 +11°C° 0 mm 7 mps 748 mmHg 73%
    08:00 +14°C° 0 mm 7 mps 748 mmHg 65%
    09:00 +15°C° 0 mm 7 mps 748 mmHg 57%
    10:00 +16°C° 0 mm 8 mps 748 mmHg 49%
    11:00 +17°C° 0 mm 8 mps 748 mmHg 49%
    12:00 +17°C° 0 mm 8 mps 748 mmHg 49%
    13:00 +17°C° 0 mm 8 mps 748 mmHg 49%
    14:00 +17°C° 0.1 mm 8 mps 748 mmHg 51%
    15:00 +17°C° 0.1 mm 8 mps 748 mmHg 53%
    16:00 +16°C° 0.1 mm 7 mps 748 mmHg 55%
    17:00 +15°C° 0 mm 6 mps 749 mmHg 60%
    18:00 +15°C° 0 mm 5 mps 749 mmHg 64%
    19:00 +14°C° 0 mm 4 mps 749 mmHg 69%
    20:00 +13°C° 0 mm 3 mps 749 mmHg 74%
    21:00 +11°C° 0 mm 3 mps 750 mmHg 80%
    22:00 +10°C° 0 mm 3 mps 750 mmHg 85%
    23:00 +10°C° 0 mm 3 mps 750 mmHg 87%

    23 June, Saturday

    Time Temperature Precipitation Wind Pressure Humidity
    00:00 +9°C° 0 mm 3 mps 750 mmHg 89%
    01:00 +9°C° 0 mm 3 mps 750 mmHg 91%
    02:00 +8°C° 0 mm 3 mps 750 mmHg 91%
    03:00 +8°C° 0 mm 3 mps 750 mmHg 91%
    04:00 +8°C° 0 mm 3 mps 750 mmHg 91%
    05:00 +10°C° 0 mm 3 mps 750 mmHg 82%
    06:00 +12°C° 0 mm 4 mps 750 mmHg 74%
    07:00 +14°C° 0 mm 5 mps 750 mmHg 65%
    08:00 +15°C° 0.4 mm 5 mps 750 mmHg 67%
    09:00 +15°C° 0.4 mm 5 mps 750 mmHg 68%
    10:00 +16°C° 0.4 mm 6 mps 750 mmHg 69%
    11:00 +16°C° 0.7 mm 6 mps 750 mmHg 70%
    12:00 +16°C° 0.7 mm 6 mps 749 mmHg 70%
    13:00 +16°C° 0.7 mm 5 mps 749 mmHg 71%
    14:00 +16°C° 0.4 mm 5 mps 749 mmHg 70%
    15:00 +16°C° 0.4 mm 5 mps 749 mmHg 68%
    16:00 +17°C° 0.4 mm 5 mps 749 mmHg 67%
    17:00 +17°C° 0.2 mm 4 mps 750 mmHg 71%
    18:00 +15°C° 0.2 mm 4 mps 750 mmHg 75%
    19:00 +14°C° 0.2 mm 4 mps 750 mmHg 79%
    20:00 +13°C° 0 mm 3 mps 750 mmHg 82%
    21:00 +11°C° 0 mm 3 mps 750 mmHg 85%
    22:00 +10°C° 0 mm 3 mps 751 mmHg 88%
    23:00 +10°C° 0 mm 3 mps 751 mmHg 89%

    24 June, Sunday

    Time Temperature Precipitation Wind Pressure Humidity
    00:00 +9°C° 0 mm 2 mps 751 mmHg 89%
    01:00 +9°C° 0 mm 2 mps 751 mmHg 89%
    02:00 +9°C° 0 mm 2 mps 751 mmHg 89%
    03:00 +9°C° 0 mm 2 mps 751 mmHg 89%
    04:00 +9°C° 0 mm 2 mps 751 mmHg 89%
    05:00 +12°C° 0 mm 2 mps 752 mmHg 85%
    06:00 +13°C° 0 mm 2 mps 752 mmHg 80%
    07:00 +14°C° 0 mm 3 mps 752 mmHg 76%
    08:00 +16°C° 0.2 mm 3 mps 752 mmHg 69%
    09:00 +18°C° 0.2 mm 3 mps 752 mmHg 62%
    10:00 +19°C° 0.2 mm 3 mps 752 mmHg 56%
    11:00 +20°C° 0.2 mm 4 mps 752 mmHg 55%
    12:00 +20°C° 0.2 mm 4 mps 752 mmHg 54%
    13:00 +21°C° 0.2 mm 4 mps 752 mmHg 53%
    14:00 +20°C° 0.4 mm 4 mps 752 mmHg 56%
    15:00 +20°C° 0.4 mm 3 mps 752 mmHg 59%
    16:00 +20°C° 0.4 mm 3 mps 752 mmHg 62%
    17:00 +19°C° 0.1 mm 3 mps 752 mmHg 67%
    18:00 +18°C° 0.1 mm 2 mps 752 mmHg 71%
    19:00 +18°C° 0.1 mm 1 mps 753 mmHg 76%
    20:00 +15°C° 0 mm 2 mps 753 mmHg 79%
    21:00 +14°C° 0 mm 2 mps 753 mmHg 82%
    22:00 +13°C° 0 mm 2 mps 753 mmHg 85%
    23:00 +12°C° 0 mm 2 mps 754 mmHg 87%

    25 June, Monday

    Time Temperature Precipitation Wind Pressure Humidity
    00:00 +10°C° 0 mm 2 mps 754 mmHg 89%
    01:00 +9°C° 0 mm 2 mps 754 mmHg 91%
    02:00 +9°C° 0 mm 2 mps 754 mmHg 90%
    03:00 +9°C° 0 mm 2 mps 754 mmHg 89%
    04:00 +9°C° 0 mm 2 mps 754 mmHg 88%
    05:00 +12°C° 0 mm 2 mps 754 mmHg 80%
    06:00 +14°C° 0 mm 2 mps 754 mmHg 72%
    07:00 +16°C° 0 mm 2 mps 755 mmHg 64%
    08:00 +18°C° 0 mm 3 mps 755 mmHg 58%
    09:00 +19°C° 0 mm 4 mps 754 mmHg 51%
    10:00 +21°C° 0 mm 4 mps 754 mmHg 45%
    11:00 +22°C° 0 mm 4 mps 754 mmHg 44%
    12:00 +23°C° 0 mm 4 mps 754 mmHg 42%
    13:00 +23°C° 0 mm 4 mps 754 mmHg 41%
    14:00 +23°C° 0 mm 4 mps 754 mmHg 44%
    15:00 +23°C° 0 mm 4 mps 754 mmHg 46%
    16:00 +23°C° 0 mm 4 mps 753 mmHg 49%
    17:00 +21°C° 0.1 mm 4 mps 753 mmHg 57%
    18:00 +19°C° 0.1 mm 3 mps 753 mmHg 65%
    19:00 +18°C° 0.1 mm 3 mps 753 mmHg 73%
    20:00 +17°C° 0 mm 2 mps 753 mmHg 76%
    21:00 +16°C° 0 mm 2 mps 754 mmHg 78%
    22:00 +16°C° 0 mm 2 mps 754 mmHg 81%
    23:00 +15°C° 0 mm 2 mps 754 mmHg 83%
    Show more